Simultaneous Nadir Overpasses (SNOs) Predictions

Prediction of SNOs between AQUA and GOES-15 Satellite Orbit:

Table of predicted SNOs for the next 14.0 days since TLE Epoch: 1/20/2012
Index Date Time (AQUA) AQUA Lat,Lon GOES-15 Lat,Lon Distance(km) Time Diff (sec)
1 01/21/2012 22:28:35 0.26,-133.39 0.01,-134.54 130.35 80
2 01/22/2012 10:49:50 0.85,-138.54 -0.01,-134.53 456.78 80
3 01/23/2012 22:16:22 0.88,-130.43 0.01,-134.49 462.58 80
4 01/24/2012 10:37:37 0.22,-135.58 -0.01,-134.48 124.51 80
5 01/26/2012 10:25:24 -0.43,-132.61 -0.02,-134.43 207.52 80
6 01/26/2012 22:46:46 -0.72,-137.79 0.02,-134.42 383.93 80
7 01/28/2012 22:34:32 -0.10,-134.82 0.02,-134.37 52.25 80
8 01/30/2012 22:22:19 0.53,-131.85 0.01,-134.31 279.32 80
9 01/31/2012 10:43:33 0.56,-137.01 -0.00,-134.29 308.53 80
10 02/02/2012 10:31:18 -0.03,-134.03 0.01,-134.23 22.44 80




NCC Satellite Simultaneous Nadir Overpasses (SNOs) Prediction Service
